This demonstration page uses our WeatherBlox Daily Observations layout. Learn more.

Left ArrowRight Arrow

36.19886, -115.1175

Hourly Observations for December 30, 2020

Temp ( °F °C ) Dew Point ( °F °C ) Humidity (%) Winds ( mph kmh ) Pressure ( in mb ) Visibility ( mi km ) Precip ( " mm )
12:53 am 00:53 Clear 44 6.7 11 -11.7 26 26 NNW 15 24 30.27 1025 10 16.0934 0 0
1:53 am 01:53 Clear 42 5.6 12 -11.1 29 29 NNW 14 22 30.27 1025 10 16.0934 0 0
2:53 am 02:53 Clear 45 7.2 12 -11.1 26 26 N 18 30 30.27 1025 10 16.0934 0 0
3:53 am 03:53 Clear 44 6.7 10 -12.2 25 25 NNW 15 24 30.27 1025 10 16.0934 0 0
4:53 am 04:53 Clear 40 4.4 11 -11.7 30 30 SE 6 9 30.3 1026 10 16.0934 0 0
5:53 am 05:53 Clear 39 3.9 10 -12.2 30 30 NW 3 6 30.32 1027 10 16.0934 0 0
6:53 am 06:53 Sunny 39 3.9 11 -11.7 31 31 NNW 13 20 30.32 1027 10 16.0934 0 0
7:53 am 07:53 Sunny 41 5 10 -12.2 28 28 NW 12 19 30.35 1028 10 16.0934 0 0
8:53 am 08:53 Sunny 46 7.8 9 -12.8 22 22 N 8 13 30.35 1028 10 16.0934 0 0
9:53 am 09:53 Sunny 47 8.3 10 -12.2 22 22 VRB 5 7 30.36 1028 10 16.0934 0 0
10:53 am 10:53 Sunny 51 10.6 10 -12.2 19 19 E 5 7 30.31 1026 10 16.0934 0 0
11:53 am 11:53 Sunny 53 11.7 10 -12.2 18 18 E 5 7 30.28 1025 10 16.0934 0 0
12:53 pm 12:53 Sunny 54 12.2 9 -12.8 16 16 VRB 7 11 30.24 1024 10 16.0934 0 0
1:53 pm 13:53 Sunny 55 12.8 7 -13.9 14 14 Calm 30.22 1023 10 16.0934 0 0
2:53 pm 14:53 Sunny 56 13.3 6 -14.4 13 13 SE 6 9 30.2 1023 10 16.0934 0 0
3:53 pm 15:53 Sunny 55 12.8 6 -14.4 14 14 E 3 6 30.2 1023 10 16.0934 0 0
4:53 pm 16:53 Clear 53 11.7 7 -13.9 15 15 SE 3 6 30.22 1023 10 16.0934 0 0
5:53 pm 17:53 Clear 53 11.7 8 -13.3 16 16 Calm 30.22 1023 10 16.0934 0 0
6:53 pm 18:53 Clear 50 10 9 -12.8 19 19 Calm 30.22 1023 10 16.0934 0 0
7:53 pm 19:53 Clear 46 7.8 12 -11.1 25 25 W 7 11 30.22 1023 10 16.0934 0 0
8:53 pm 20:53 Clear 45 7.2 10 -12.2 24 24 Calm 30.18 1022 10 16.0934 0 0
9:53 pm 21:53 Clear 43 6.1 10 -12.2 26 26 WNW 6 9 30.17 1022 10 16.0934 0 0
10:53 pm 22:53 Clear 41 5 12 -11.1 30 30 Calm 30.13 1020 10 16.0934 0 0
11:53 pm 23:53 Clear 40 4.4 12 -11.1 32 32 NW 3 6 30.09 1019 10 16.0934 0 0

Powered by AerisWeather